| time (UTC) | temp F | wind direction | speed MPH | gust MPH | rain 1hr in | rain 24hr in | rain mn in | humidity % | barometer mb |
| 20260506082043 | 49 | 345 | 2.0 | 3.0 | 0.00 | 0.02 | 0.00 | 78 | 1014.8 |
| 20260506081542 | 49 | 130 | 0.0 | 0.0 | 0.00 | 0.02 | 0.00 | 77 | 1014.3 |
| 20260506081042 | 49 | 130 | 0.0 | 0.0 | 0.00 | 0.02 | 0.00 | 76 | 1014.4 |
| 20260506080541 | 49 | 130 | 0.0 | 1.0 | 0.00 | 0.02 | 0.00 | 75 | 1014.4 |
| 20260506073035 | 51 | 101 | 0.0 | 2.0 | 0.00 | 0.02 | 0.00 | 70 | 1014.8 |
| 20260506072534 | 51 | 104 | 0.0 | 4.0 | 0.00 | 0.02 | 0.00 | 66 | 1014.9 |
| 20260506072034 | 51 | 196 | 0.0 | 7.0 | 0.00 | 0.02 | 0.00 | 65 | 1014.9 |
| 20260506071535 | 51 | 132 | 1.0 | 7.0 | 0.00 | 0.02 | 0.00 | 65 | 1014.8 |
| 20260506071033 | 51 | 78 | 4.0 | 6.0 | 0.00 | 0.02 | 0.00 | 67 | 1014.8 |
| 20260506070531 | 52 | 75 | 1.0 | 5.0 | 0.00 | 0.02 | 0.00 | 66 | 1014.8 |
| 20260506062025 | 53 | 229 | 1.0 | 6.0 | 0.00 | 0.02 | 0.00 | 58 | 1014.3 |
| 20260506061523 | 53 | 240 | 2.0 | 6.0 | 0.00 | 0.02 | 0.00 | 59 | 1014.2 |
| 20260506061021 | 53 | 248 | 2.0 | 9.0 | 0.00 | 0.02 | 0.00 | 59 | 1014.1 |
| 20260506060521 | 52 | 274 | 5.0 | 9.0 | 0.00 | 0.02 | 0.00 | 60 | 1014.0 |
| 20260506051014 | 51 | 262 | 0.0 | 2.0 | 0.00 | 0.02 | 0.02 | 60 | 1013.3 |
| 20260506050513 | 51 | 217 | 1.0 | 3.0 | 0.00 | 0.02 | 0.02 | 61 | 1013.1 |
| 20260506045010 | 50 | 169 | 0.0 | 2.0 | 0.00 | 0.02 | 0.02 | 62 | 1012.7 |
| 20260506044511 | 50 | 191 | 0.0 | 3.0 | 0.00 | 0.02 | 0.02 | 62 | 1012.7 |
| 20260506044009 | 50 | 217 | 1.0 | 2.0 | 0.00 | 0.02 | 0.02 | 62 | 1012.7 |
| 20260506043513 | 51 | 217 | 0.0 | 2.0 | 0.00 | 0.02 | 0.02 | 61 | 1012.7 |
| 20260506043013 | 51 | 236 | 0.0 | 1.0 | 0.00 | 0.02 | 0.02 | 61 | 1012.7 |
| 20260506042509 | 51 | 251 | 0.0 | 3.0 | 0.00 | 0.02 | 0.02 | 61 | 1012.7 |
| 20260506042009 | 51 | 160 | 0.0 | 3.0 | 0.00 | 0.02 | 0.02 | 61 | 1012.6 |
| 20260506041508 | 51 | 219 | 0.0 | 0.0 | 0.00 | 0.02 | 0.02 | 61 | 1012.7 |
| 20260506041008 | 51 | 218 | 0.0 | 2.0 | 0.00 | 0.02 | 0.02 | 61 | 1012.6 |
| 20260506040508 | 51 | 231 | 0.0 | 3.0 | 0.00 | 0.02 | 0.02 | 61 | 1012.6 |
| 20260506040007 | 51 | 231 | 0.0 | 3.0 | 0.00 | 0.02 | 0.02 | 61 | 1012.6 |
| 20260506035510 | 51 | 182 | 1.0 | 3.0 | 0.00 | 0.02 | 0.02 | 61 | 1012.5 |
| 20260506035007 | 51 | 161 | 1.0 | 3.0 | 0.00 | 0.02 | 0.02 | 61 | 1012.6 |
| 20260506034517 | 51 | 148 | 1.0 | 3.0 | 0.00 | 0.02 | 0.02 | 60 | 1012.5 |
| 20260506034006 | 52 | 222 | 1.0 | 3.0 | 0.00 | 0.02 | 0.02 | 59 | 1012.4 |
| 20260506033505 | 52 | 230 | 1.0 | 3.0 | 0.00 | 0.02 | 0.02 | 59 | 1012.4 |
| 20260506033005 | 52 | 207 | 1.0 | 7.0 | 0.00 | 0.02 | 0.02 | 59 | 1012.3 |
| 20260506032504 | 53 | 201 | 4.0 | 7.0 | 0.00 | 0.02 | 0.02 | 59 | 1012.2 |
| 20260506032007 | 53 | 167 | 4.0 | 8.0 | 0.00 | 0.02 | 0.02 | 59 | 1012.1 |
| 20260506031504 | 53 | 147 | 4.0 | 8.0 | 0.00 | 0.02 | 0.02 | 58 | 1012.0 |
| 20260506031004 | 53 | 155 | 4.0 | 8.0 | 0.00 | 0.02 | 0.02 | 57 | 1011.9 |
| 20260506030505 | 53 | 136 | 4.0 | 9.0 | 0.00 | 0.02 | 0.02 | 56 | 1011.9 |
| 20260506030007 | 53 | 127 | 4.0 | 9.0 | 0.00 | 0.02 | 0.02 | 55 | 1011.8 |
| 20260506025502 | 54 | 170 | 4.0 | 8.0 | 0.00 | 0.02 | 0.02 | 54 | 1011.8 |
| 20260506025002 | 54 | 144 | 3.0 | 11.0 | 0.00 | 0.02 | 0.02 | 54 | 1011.7 |
| 20260506024506 | 54 | 179 | 3.0 | 11.0 | 0.00 | 0.02 | 0.02 | 53 | 1011.7 |
| 20260506024002 | 54 | 165 | 4.0 | 10.0 | 0.00 | 0.02 | 0.02 | 53 | 1011.7 |
| 20260506023502 | 54 | 174 | 3.0 | 8.0 | 0.00 | 0.02 | 0.02 | 53 | 1011.6 |
| 20260506023003 | 55 | 159 | 4.0 | 8.0 | 0.00 | 0.02 | 0.02 | 53 | 1011.4 |
| 20260506022501 | 55 | 162 | 3.0 | 9.0 | 0.00 | 0.02 | 0.02 | 52 | 1011.4 |
| 20260506022002 | 55 | 157 | 5.0 | 10.0 | 0.00 | 0.02 | 0.02 | 51 | 1011.2 |
| 20260506021501 | 56 | 142 | 4.0 | 10.0 | 0.00 | 0.02 | 0.02 | 50 | 1011.3 |
| 20260506021004 | 56 | 145 | 3.0 | 9.0 | 0.00 | 0.02 | 0.02 | 49 | 1011.2 |
| 20260506020601 | 57 | 153 | 5.0 | 12.0 | 0.00 | 0.02 | 0.02 | 48 | 1011.2 |
| 20260506020100 | 58 | 167 | 4.0 | 12.0 | 0.00 | 0.02 | 0.02 | 47 | 1011.1 |
| 20260506015600 | 58 | 174 | 3.0 | 9.0 | 0.00 | 0.02 | 0.02 | 47 | 1011.1 |
| 20260506015100 | 58 | 149 | 3.0 | 10.0 | 0.00 | 0.02 | 0.02 | 47 | 1011.1 |
| 20260506014600 | 59 | 162 | 5.0 | 10.0 | 0.00 | 0.02 | 0.02 | 46 | 1011.1 |
| 20260506014102 | 59 | 167 | 5.0 | 9.0 | 0.00 | 0.02 | 0.02 | 45 | 1011.1 |
| 20260506013604 | 60 | 140 | 2.0 | 8.0 | 0.00 | 0.02 | 0.02 | 46 | 1011.1 |
| 20260506013110 | 60 | 128 | 4.0 | 7.0 | 0.00 | 0.02 | 0.02 | 45 | 1011.0 |
| 20260506012600 | 59 | 167 | 1.0 | 6.0 | 0.00 | 0.02 | 0.02 | 46 | 1011.0 |
| 20260506012059 | 59 | 147 | 3.0 | 7.0 | 0.00 | 0.02 | 0.02 | 46 | 1011.0 |
| 20260506011609 | 60 | 142 | 3.0 | 7.0 | 0.00 | 0.02 | 0.02 | 47 | 1010.9 |
| 20260506011058 | 60 | 153 | 3.0 | 6.0 | 0.00 | 0.02 | 0.02 | 46 | 1010.9 |
| 20260506010558 | 59 | 155 | 2.0 | 7.0 | 0.00 | 0.02 | 0.02 | 47 | 1010.8 |
| 20260506010058 | 60 | 143 | 3.0 | 7.0 | 0.00 | 0.02 | 0.02 | 46 | 1010.8 |
| 20260506005555 | 60 | 120 | 1.0 | 6.0 | 0.00 | 0.02 | 0.02 | 46 | 1010.8 |
| 20260506005057 | 59 | 131 | 1.0 | 7.0 | 0.00 | 0.02 | 0.02 | 47 | 1010.8 |
| 20260506004556 | 60 | 136 | 3.0 | 7.0 | 0.00 | 0.02 | 0.02 | 46 | 1010.8 |
| 20260506004055 | 60 | 87 | 1.0 | 6.0 | 0.00 | 0.02 | 0.02 | 46 | 1010.7 |
| 20260506003555 | 60 | 147 | 3.0 | 8.0 | 0.00 | 0.02 | 0.02 | 47 | 1010.8 |
| 20260506003057 | 60 | 128 | 3.0 | 8.0 | 0.00 | 0.02 | 0.02 | 47 | 1010.8 |
| 20260506002554 | 60 | 116 | 2.0 | 7.0 | 0.00 | 0.02 | 0.02 | 49 | 1010.8 |
| 20260506002053 | 59 | 205 | 2.0 | 7.0 | 0.00 | 0.02 | 0.02 | 50 | 1010.8 |
| 20260506001552 | 59 | 186 | 1.0 | 6.0 | 0.00 | 0.02 | 0.02 | 54 | 1010.7 |
| 20260506001051 | 59 | 94 | 0.0 | 6.0 | 0.00 | 0.02 | 0.02 | 57 | 1010.8 |
| 20260506000550 | 58 | 146 | 1.0 | 6.0 | 0.00 | 0.02 | 0.02 | 72 | 1010.8 |
| 20260506000050 | 55 | 145 | 1.0 | 7.0 | 0.00 | 0.02 | 0.02 | 86 | 1010.8 |
| 20260505235547 | 54 | 139 | 4.0 | 7.0 | 0.00 | 0.02 | 0.02 | 88 | 1010.8 |
| 20260505235047 | 53 | 102 | 2.0 | 6.0 | 0.00 | 0.02 | 0.02 | 90 | 1010.8 |
| 20260505234547 | 53 | 131 | 2.0 | 7.0 | 0.00 | 0.02 | 0.02 | 90 | 1010.8 |
| 20260505234047 | 53 | 143 | 3.0 | 7.0 | 0.00 | 0.02 | 0.02 | 90 | 1010.8 |
| 20260505233547 | 53 | 140 | 3.0 | 5.0 | 0.00 | 0.02 | 0.02 | 90 | 1010.8 |
| 20260505233046 | 53 | 189 | 1.0 | 6.0 | 0.00 | 0.02 | 0.02 | 91 | 1010.8 |
| 20260505232546 | 53 | 137 | 1.0 | 5.0 | 0.00 | 0.02 | 0.02 | 91 | 1010.9 |
| 20260505232049 | 53 | 160 | 0.0 | 4.0 | 0.00 | 0.02 | 0.02 | 91 | 1011.0 |
| 20260505231546 | 52 | 230 | 1.0 | 4.0 | 0.00 | 0.02 | 0.02 | 92 | 1011.1 |
| 20260505231049 | 52 | 141 | 1.0 | 4.0 | 0.01 | 0.02 | 0.02 | 92 | 1011.1 |
| 20260505230546 | 51 | 132 | 0.0 | 6.0 | 0.01 | 0.02 | 0.02 | 92 | 1011.2 |
| 20260505230056 | 51 | 222 | 1.0 | 6.0 | 0.02 | 0.02 | 0.02 | 92 | 1011.2 |
| 20260505225546 | 50 | 251 | 1.0 | 7.0 | 0.02 | 0.02 | 0.02 | 92 | 1011.3 |
| 20260505225044 | 50 | 217 | 1.0 | 7.0 | 0.02 | 0.02 | 0.02 | 91 | 1011.4 |
| 20260505224547 | 50 | 160 | 1.0 | 4.0 | 0.02 | 0.02 | 0.02 | 92 | 1011.4 |
| 20260505224045 | 50 | 160 | 1.0 | 4.0 | 0.02 | 0.02 | 0.02 | 92 | 1011.6 |
| 20260505223543 | 49 | 150 | 1.0 | 4.0 | 0.02 | 0.02 | 0.02 | 92 | 1011.6 |
| 20260505223055 | 49 | 144 | 2.0 | 4.0 | 0.02 | 0.02 | 0.02 | 92 | 1011.7 |
| 20260505222542 | 49 | 150 | 1.0 | 5.0 | 0.02 | 0.02 | 0.02 | 91 | 1011.7 |
| 20260505222042 | 49 | 87 | 3.0 | 5.0 | 0.02 | 0.02 | 0.02 | 89 | 1011.7 |
| 20260505221540 | 50 | 134 | 3.0 | 5.0 | 0.02 | 0.02 | 0.02 | 87 | 1011.8 |
| 20260505221042 | 52 | 190 | 1.0 | 6.0 | 0.01 | 0.01 | 0.01 | 84 | 1011.9 |
| 20260505220539 | 55 | 109 | 3.0 | 6.0 | 0.01 | 0.01 | 0.01 | 56 | 1011.9 |
| 20260505220042 | 55 | 12 | 0.0 | 5.0 | 0.00 | 0.00 | 0.00 | 55 | 1011.9 |
| 20260505215537 | 56 | 116 | 2.0 | 4.0 | 0.00 | 0.00 | 0.00 | 53 | 1011.9 |
| 20260505215037 | 56 | 144 | 0.0 | 4.0 | 0.00 | 0.00 | 0.00 | 49 | 1012.1 |
| 20260505214537 | 56 | 104 | 0.0 | 4.0 | 0.00 | 0.00 | 0.00 | 47 | 1012.1 |
| 20260505214037 | 56 | 135 | 1.0 | 4.0 | 0.00 | 0.00 | 0.00 | 47 | 1012.1 |
| 20260505213535 | 56 | 134 | 0.0 | 7.0 | 0.00 | 0.00 | 0.00 | 48 | 1012.0 |
| 20260505213049 | 56 | 136 | 3.0 | 7.0 | 0.00 | 0.00 | 0.00 | 48 | 1011.9 |
| 20260505212538 | 56 | 152 | 2.0 | 6.0 | 0.00 | 0.00 | 0.00 | 49 | 1011.9 |
| 20260505212034 | 56 | 146 | 3.0 | 9.0 | 0.00 | 0.00 | 0.00 | 49 | 1011.9 |
| 20260505211534 | 56 | 181 | 3.0 | 8.0 | 0.00 | 0.00 | 0.00 | 49 | 1011.8 |
| 20260505211034 | 56 | 169 | 3.0 | 8.0 | 0.00 | 0.00 | 0.00 | 48 | 1011.8 |
| 20260505210536 | 56 | 176 | 3.0 | 8.0 | 0.00 | 0.00 | 0.00 | 49 | 1011.8 |
| 20260505210032 | 55 | 145 | 3.0 | 9.0 | 0.00 | 0.00 | 0.00 | 49 | 1011.7 |
| 20260505205532 | 55 | 146 | 3.0 | 11.0 | 0.00 | 0.00 | 0.00 | 50 | 1011.7 |
| 20260505205032 | 55 | 143 | 7.0 | 11.0 | 0.00 | 0.00 | 0.00 | 50 | 1011.7 |
| 20260505204532 | 55 | 134 | 4.0 | 8.0 | 0.00 | 0.00 | 0.00 | 50 | 1011.7 |
| 20260505204033 | 55 | 141 | 3.0 | 11.0 | 0.00 | 0.00 | 0.00 | 51 | 1011.7 |
| 20260505203531 | 54 | 137 | 4.0 | 11.0 | 0.00 | 0.00 | 0.00 | 50 | 1011.7 |
| 20260505203042 | 54 | 159 | 5.0 | 10.0 | 0.00 | 0.00 | 0.00 | 51 | 1011.7 |
| 20260505202531 | 54 | 158 | 4.0 | 9.0 | 0.00 | 0.00 | 0.00 | 51 | 1011.7 |
| 20260505202030 | 54 | 161 | 4.0 | 9.0 | 0.00 | 0.00 | 0.00 | 52 | 1011.7 |
| 20260505201529 | 54 | 193 | 4.0 | 10.0 | 0.00 | 0.00 | 0.00 | 52 | 1011.8 |
| 20260505201029 | 54 | 158 | 4.0 | 9.0 | 0.00 | 0.00 | 0.00 | 52 | 1011.8 |
| 20260505200531 | 54 | 161 | 4.0 | 12.0 | 0.00 | 0.00 | 0.00 | 53 | 1011.7 |
| 20260505200034 | 54 | 153 | 7.0 | 13.0 | 0.00 | 0.00 | 0.00 | 53 | 1011.7 |
| 20260505195528 | 54 | 131 | 6.0 | 13.0 | 0.00 | 0.00 | 0.00 | 53 | 1011.8 |
| 20260505195027 | 54 | 226 | 6.0 | 14.0 | 0.00 | 0.00 | 0.00 | 53 | 1011.7 |
| 20260505194527 | 54 | 149 | 8.0 | 14.0 | 0.00 | 0.00 | 0.00 | 52 | 1011.7 |
| 20260505194029 | 54 | 140 | 5.0 | 13.0 | 0.00 | 0.00 | 0.00 | 53 | 1011.6 |
| 20260505193527 | 54 | 167 | 5.0 | 13.0 | 0.00 | 0.00 | 0.00 | 52 | 1011.7 |
| 20260505193026 | 54 | 126 | 8.0 | 13.0 | 0.00 | 0.00 | 0.00 | 53 | 1011.6 |
| 20260505192527 | 54 | 135 | 4.0 | 12.0 | 0.00 | 0.00 | 0.00 | 54 | 1011.7 |
| 20260505192026 | 54 | 157 | 6.0 | 15.0 | 0.00 | 0.00 | 0.00 | 54 | 1011.5 |
| 20260505191526 | 54 | 137 | 6.0 | 15.0 | 0.00 | 0.00 | 0.00 | 54 | 1011.5 |
| 20260505191026 | 53 | 128 | 9.0 | 16.0 | 0.00 | 0.00 | 0.00 | 53 | 1011.5 |
| 20260505190526 | 53 | 150 | 8.0 | 16.0 | 0.00 | 0.00 | 0.00 | 54 | 1011.4 |
| 20260505190024 | 53 | 162 | 7.0 | 14.0 | 0.00 | 0.00 | 0.00 | 54 | 1011.5 |
| 20260505185527 | 53 | 153 | 7.0 | 16.0 | 0.00 | 0.00 | 0.00 | 54 | 1011.5 |
| 20260505185025 | 53 | 182 | 8.0 | 17.0 | 0.00 | 0.00 | 0.00 | 54 | 1011.5 |
| 20260505184525 | 54 | 148 | 10.0 | 17.0 | 0.00 | 0.00 | 0.00 | 53 | 1011.5 |
| 20260505184025 | 54 | 227 | 7.0 | 17.0 | 0.00 | 0.00 | 0.00 | 54 | 1011.4 |
| 20260505183523 | 54 | 148 | 10.0 | 17.0 | 0.00 | 0.00 | 0.00 | 54 | 1011.4 |
| 20260505183025 | 54 | 135 | 4.0 | 18.0 | 0.00 | 0.00 | 0.00 | 55 | 1011.4 |
| 20260505182523 | 54 | 122 | 10.0 | 19.0 | 0.00 | 0.00 | 0.00 | 54 | 1011.4 |
| 20260505182022 | 54 | 133 | 8.0 | 18.0 | 0.00 | 0.00 | 0.00 | 56 | 1011.3 |
| 20260505181522 | 53 | 151 | 9.0 | 17.0 | 0.00 | 0.00 | 0.00 | 57 | 1011.2 |
| 20260505181023 | 53 | 98 | 10.0 | 16.0 | 0.00 | 0.00 | 0.00 | 57 | 1011.2 |
| 20260505180522 | 52 | 147 | 7.0 | 15.0 | 0.00 | 0.00 | 0.00 | 58 | 1011.1 |
| 20260505180021 | 52 | 137 | 7.0 | 16.0 | 0.00 | 0.00 | 0.00 | 59 | 1011.3 |
| 20260505175522 | 52 | 124 | 9.0 | 20.0 | 0.00 | 0.00 | 0.00 | 59 | 1011.3 |
| 20260505175022 | 51 | 195 | 10.0 | 20.0 | 0.00 | 0.00 | 0.00 | 59 | 1011.3 |
| 20260505174521 | 51 | 139 | 10.0 | 17.0 | 0.00 | 0.00 | 0.00 | 59 | 1011.3 |
| 20260505174020 | 51 | 181 | 8.0 | 18.0 | 0.00 | 0.00 | 0.00 | 60 | 1011.3 |
| 20260505173519 | 51 | 169 | 8.0 | 17.0 | 0.00 | 0.00 | 0.00 | 61 | 1011.2 |
| 20260505173036 | 51 | 105 | 8.0 | 17.0 | 0.00 | 0.00 | 0.00 | 60 | 1011.2 |
| 20260505172518 | 51 | 132 | 10.0 | 18.0 | 0.00 | 0.00 | 0.00 | 61 | 1011.2 |
| 20260505172017 | 51 | 198 | 8.0 | 18.0 | 0.00 | 0.00 | 0.00 | 61 | 1011.4 |
| 20260505171519 | 51 | 134 | 8.0 | 18.0 | 0.00 | 0.00 | 0.00 | 61 | 1011.3 |
| 20260505171016 | 51 | 124 | 10.0 | 18.0 | 0.00 | 0.00 | 0.00 | 60 | 1011.2 |
| 20260505170516 | 51 | 172 | 7.0 | 16.0 | 0.00 | 0.00 | 0.00 | 60 | 1011.2 |
| 20260505170023 | 51 | 158 | 5.0 | 16.0 | 0.00 | 0.00 | 0.00 | 62 | 1011.1 |
| 20260505165514 | 51 | 141 | 6.0 | 17.0 | 0.00 | 0.00 | 0.00 | 62 | 1011.1 |
| 20260505165014 | 50 | 176 | 4.0 | 18.0 | 0.00 | 0.00 | 0.00 | 63 | 1011.1 |
| 20260505164535 | 50 | 179 | 9.0 | 21.0 | 0.00 | 0.00 | 0.00 | 61 | 1011.1 |
| 20260505164013 | 50 | 129 | 10.0 | 19.0 | 0.00 | 0.00 | 0.00 | 62 | 1011.1 |
| 20260505163513 | 50 | 159 | 8.0 | 20.0 | 0.00 | 0.00 | 0.00 | 63 | 1011.1 |
| 20260505163014 | 50 | 141 | 9.0 | 20.0 | 0.00 | 0.00 | 0.00 | 64 | 1011.0 |
| 20260505162510 | 50 | 146 | 7.0 | 18.0 | 0.00 | 0.00 | 0.00 | 64 | 1011.0 |
| 20260505162009 | 50 | 169 | 8.0 | 16.0 | 0.00 | 0.00 | 0.00 | 64 | 1011.0 |
| 20260505161508 | 51 | 135 | 9.0 | 16.0 | 0.00 | 0.00 | 0.00 | 64 | 1011.0 |
| 20260505161009 | 51 | 146 | 9.0 | 16.0 | 0.00 | 0.00 | 0.00 | 64 | 1011.0 |
| 20260505160506 | 51 | 160 | 5.0 | 13.0 | 0.00 | 0.00 | 0.00 | 64 | 1011.0 |
| 20260505153116 | 52 | 119 | 7.0 | 20.0 | 0.00 | 0.00 | 0.00 | 57 | 1010.6 |
| 20260505152558 | 52 | 176 | 8.0 | 20.0 | 0.00 | 0.00 | 0.00 | 56 | 1010.4 |
| 20260505152057 | 52 | 158 | 8.0 | 17.0 | 0.00 | 0.00 | 0.00 | 56 | 1010.3 |
| 20260505151604 | 52 | 182 | 5.0 | 14.0 | 0.00 | 0.00 | 0.00 | 56 | 1010.3 |
| 20260505151057 | 52 | 164 | 4.0 | 14.0 | 0.00 | 0.00 | 0.00 | 56 | 1010.3 |
| 20260505150559 | 52 | 145 | 6.0 | 14.0 | 0.00 | 0.00 | 0.00 | 56 | 1010.4 |
| 20260505140548 | 52 | 156 | 10.0 | 17.0 | 0.00 | 0.00 | 0.00 | 56 | 1010.0 |
| 20260505125038 | 54 | 172 | 2.0 | 11.0 | 0.00 | 0.00 | 0.00 | 63 | 1008.9 |
| 20260505124537 | 54 | 139 | 3.0 | 11.0 | 0.00 | 0.00 | 0.00 | 63 | 1008.8 |
| 20260505124034 | 54 | 144 | 5.0 | 14.0 | 0.00 | 0.00 | 0.00 | 63 | 1008.7 |
| 20260505123535 | 54 | 148 | 7.0 | 14.0 | 0.00 | 0.00 | 0.00 | 64 | 1008.6 |
| 20260505123033 | 54 | 165 | 4.0 | 10.0 | 0.00 | 0.00 | 0.00 | 65 | 1008.5 |
| 20260505122537 | 54 | 133 | 3.0 | 14.0 | 0.00 | 0.00 | 0.00 | 67 | 1008.4 |
| 20260505122037 | 54 | 159 | 6.0 | 14.0 | 0.00 | 0.00 | 0.00 | 66 | 1008.4 |
| 20260505121536 | 53 | 203 | 3.0 | 10.0 | 0.00 | 0.00 | 0.00 | 67 | 1008.4 |
| 20260505121031 | 54 | 141 | 3.0 | 10.0 | 0.00 | 0.00 | 0.00 | 68 | 1008.4 |
| 20260505120531 | 54 | 150 | 3.0 | 11.0 | 0.00 | 0.00 | 0.00 | 69 | 1008.5 |
| 20260505120030 | 54 | 164 | 3.0 | 12.0 | 0.00 | 0.00 | 0.00 | 70 | 1008.5 |
| 20260505115530 | 54 | 141 | 6.0 | 12.0 | 0.00 | 0.00 | 0.00 | 71 | 1008.6 |
| 20260505115030 | 54 | 156 | 4.0 | 10.0 | 0.00 | 0.00 | 0.00 | 72 | 1008.5 |
| 20260505114534 | 53 | 118 | 5.0 | 9.0 | 0.00 | 0.00 | 0.00 | 73 | 1008.5 |
| 20260505114027 | 53 | 226 | 3.0 | 8.0 | 0.00 | 0.00 | 0.00 | 72 | 1008.6 |
| 20260505113525 | 53 | 214 | 2.0 | 8.0 | 0.00 | 0.00 | 0.00 | 71 | 1008.6 |
| 20260505113025 | 53 | 212 | 2.0 | 8.0 | 0.00 | 0.00 | 0.00 | 70 | 1008.7 |
| 20260505112525 | 53 | 215 | 4.0 | 8.0 | 0.00 | 0.00 | 0.00 | 68 | 1008.6 |
| 20260505112025 | 53 | 213 | 3.0 | 7.0 | 0.00 | 0.00 | 0.00 | 68 | 1008.7 |
| 20260505111528 | 53 | 225 | 1.0 | 5.0 | 0.00 | 0.00 | 0.00 | 68 | 1008.7 |
| 20260505111023 | 53 | 214 | 1.0 | 7.0 | 0.00 | 0.00 | 0.00 | 68 | 1008.7 |
| 20260505110522 | 53 | 220 | 2.0 | 7.0 | 0.00 | 0.00 | 0.00 | 67 | 1008.7 |
| 20260505102015 | 55 | 231 | 1.0 | 4.0 | 0.00 | 0.00 | 0.00 | 59 | 1008.5 |
| 20260505101515 | 55 | 236 | 1.0 | 3.0 | 0.00 | 0.00 | 0.00 | 59 | 1008.5 |
| 20260505101014 | 55 | 236 | 2.0 | 4.0 | 0.00 | 0.00 | 0.00 | 59 | 1008.5 |
| 20260505100514 | 55 | 274 | 0.0 | 4.0 | 0.00 | 0.00 | 0.00 | 59 | 1008.4 |
| 20260505100013 | 55 | 220 | 1.0 | 4.0 | 0.00 | 0.00 | 0.00 | 59 | 1008.6 |
| 20260505095512 | 55 | 208 | 1.0 | 4.0 | 0.00 | 0.00 | 0.00 | 59 | 1008.6 |
| 20260505095012 | 55 | 221 | 1.0 | 4.0 | 0.00 | 0.00 | 0.00 | 59 | 1008.6 |
| 20260505094512 | 55 | 240 | 1.0 | 5.0 | 0.00 | 0.00 | 0.00 | 59 | 1008.6 |
| 20260505094017 | 55 | 219 | 1.0 | 6.0 | 0.00 | 0.00 | 0.00 | 59 | 1008.6 |
| 20260505093513 | 55 | 231 | 1.0 | 6.0 | 0.00 | 0.00 | 0.00 | 60 | 1008.6 |
| 20260505093012 | 55 | 186 | 1.0 | 4.0 | 0.00 | 0.00 | 0.00 | 60 | 1008.5 |
| 20260505092512 | 55 | 214 | 0.0 | 7.0 | 0.00 | 0.00 | 0.00 | 62 | 1008.5 |
| 20260505092012 | 55 | 235 | 1.0 | 7.0 | 0.00 | 0.00 | 0.00 | 61 | 1008.5 |
| 20260505091511 | 55 | 202 | 2.0 | 7.0 | 0.00 | 0.00 | 0.00 | 61 | 1008.5 |
| 20260505091011 | 55 | 163 | 3.0 | 7.0 | 0.00 | 0.00 | 0.00 | 61 | 1008.5 |
| 20260505090509 | 55 | 172 | 1.0 | 7.0 | 0.00 | 0.00 | 0.00 | 60 | 1008.5 |
| 20260505090009 | 56 | 132 | 2.0 | 7.0 | 0.00 | 0.00 | 0.00 | 60 | 1008.6 |
| 20260505085512 | 55 | 192 | 3.0 | 7.0 | 0.00 | 0.00 | 0.00 | 60 | 1008.6 |
| 20260505085008 | 55 | 173 | 3.0 | 9.0 | 0.00 | 0.00 | 0.00 | 61 | 1008.7 |
| 20260505084508 | 55 | 153 | 1.0 | 5.0 | 0.00 | 0.00 | 0.00 | 61 | 1008.7 |
| 20260505084008 | 55 | 156 | 3.0 | 7.0 | 0.00 | 0.00 | 0.00 | 62 | 1008.7 |
| 20260505083511 | 55 | 154 | 3.0 | 7.0 | 0.00 | 0.00 | 0.00 | 62 | 1008.8 |
| 20260505083007 | 55 | 190 | 1.0 | 6.0 | 0.00 | 0.00 | 0.00 | 62 | 1008.8 |
| 20260505082507 | 55 | 139 | 2.0 | 6.0 | 0.00 | 0.00 | 0.00 | 62 | 1008.9 |